Location: Adaghas
(31.2259°N, 9.0496°W)
Time: 03:49:25
(UTC+00:00)

Resurs 01 Rocket - Pass Details

Date: 18 September 2020
Orbit: 633 x 645 km, 98.0° (Epoch: 23 October)

Event Time Altitude Azimuth Distance (km) Brightness Sun altitude
Exits shadow 20:56:50 11° 7° (N) 1,977 4.3 -29.9°
Drops below altitude 10° 20:56:58 10° 7° (N) 2,029 4.3 -29.9°
Sets 20:59:20 0° 359° (N) 2,957 5.3 -30.4°
